Date String (YYYY-MM-DD hh:mm:ss) UTC,Instrument flags,absolute air pressure of the measurement (hPa),sample flow rate (lpm),inlet stack bypass flow (lpm),air temperature of the measurement (°C),ambient temperature measured by the external sensor (°C),aerosol sample conditioner tube jacket temperature (°C),OPC LED temperature (°C),internal box temperature (°C),relative humidity of the measurement (%),span deviation,mass concentration of particles derived from Lorenz-Mie calculation of OPC scattering (μg/m³),mass concentration of particles derived from Lorenz-Mie calculation of OPC scattering (μg/m³),mass concentration of particles derived from Lorenz-Mie calculation of OPC scattering (μg/m³)
DateTimeUTC,F1_M11,P_M11,Q1_M11,Q2_M11,T1_M11,T2_M11,T3_M11,T4_M11,T5_M11,U1_M11,ZSPAN_M11,X2_M11,X0_M11,X1_M11
2024-01-26 00:00:00,SystemResetWarning,0826.0,5.00,000.00,024.9,024.2,000.0,033.3,026.3,14.0,0002.6,0007.61,0016.37,0006.70
2024-01-26 00:01:00,SystemResetWarning,0826.0,5.00,000.00,024.9,024.2,000.0,033.3,026.3,14.0,0002.9,0007.61,0016.81,0006.68
2024-01-26 00:02:00,SystemResetWarning,0826.0,5.00,000.00,024.9,024.2,000.0,033.3,026.3,14.0,0002.9,0007.56,0017.34,0006.64
2024-01-26 00:03:00,SystemResetWarning,0826.0,5.00,000.00,024.9,024.2,000.0,033.3,026.3,14.0,0002.7,0007.54,0017.42,0006.63
2024-01-26 00:04:00,SystemResetWarning,0826.0,5.00,000.00,024.9,024.2,000.0,033.3,026.3,14.0,0002.8,0007.51,0017.46,0006.61
2024-01-26 00:05:00,SystemResetWarning,0826.1,5.00,000.00,024.9,024.2,000.0,033.3,026.3,14.0,0003.3,0007.47,0017.22,0006.60
2024-01-26 00:06:00,SystemResetWarning,0826.1,5.00,000.00,024.9,024.2,000.0,033.3,026.3,14.0,0003.9,0007.44,0017.19,0006.58
2024-01-26 00:07:00,SystemResetWarning,0826.1,5.00,000.00,024.9,024.2,000.0,033.3,026.3,14.0,0004.0,0007.41,0016.32,0006.57
2024-01-26 00:08:00,SystemResetWarning,0826.1,5.00,000.00,024.9,024.2,000.0,033.3,026.3,14.0,0003.2,0007.43,0015.92,0006.58
2024-01-26 00:09:00,SystemResetWarning,0826.1,5.00,000.00,025.0,024.2,000.0,033.3,026.3,14.0,0002.2,0007.39,0015.79,0006.58
2024-01-26 00:10:00,SystemResetWarning,0826.2,5.00,000.00,025.0,024.2,000.0,033.3,026.3,14.0,0002.8,0007.40,0016.23,0006.57
2024-01-26 00:11:00,SystemResetWarning,0826.2,5.00,000.00,025.0,024.2,000.0,033.3,026.3,13.9,0001.4,0007.39,0015.89,0006.55
2024-01-26 00:12:00,SystemResetWarning,0826.2,5.00,000.00,025.0,024.2,000.0,033.3,026.3,13.9,0005.0,0007.38,0015.46,0006.54
2024-01-26 00:13:00,SystemResetWarning,0826.2,5.00,000.00,025.0,024.2,000.0,033.3,026.4,13.9,0005.2,0007.38,0014.45,0006.54
2024-01-26 00:14:00,SystemResetWarning,0826.2,5.00,000.00,025.0,024.2,000.0,033.3,026.3,13.9,0005.0,0007.35,0013.91,0006.55
2024-01-26 00:15:00,SystemResetWarning,0826.2,5.00,000.00,025.0,024.2,000.0,033.3,026.3,13.9,0004.9,0007.35,0013.76,0006.54
2024-01-26 00:16:00,SystemResetWarning,0826.2,5.00,000.00,025.0,024.2,000.0,033.3,026.3,13.8,0004.8,0007.39,0013.59,0006.54
2024-01-26 00:17:00,SystemResetWarning,0826.2,5.00,000.00,025.0,024.2,000.0,033.3,026.3,13.8,0004.8,0007.39,0013.29,0006.54
2024-01-26 00:18:00,SystemResetWarning,0826.2,5.00,000.00,025.0,024.2,000.0,033.3,026.3,13.8,0005.0,0007.42,0014.05,0006.55
2024-01-26 00:19:00,SystemResetWarning,0826.2,5.00,000.00,025.0,024.2,000.0,033.3,026.3,13.8,0004.7,0007.37,0014.58,0006.55
2024-01-26 00:20:00,SystemResetWarning,0826.2,5.00,000.00,025.0,024.2,000.0,033.3,026.3,13.8,0004.6,0007.41,0014.77,0006.57
2024-01-26 00:21:00,SystemResetWarning,0826.2,5.00,000.00,025.0,024.2,000.0,033.3,026.3,13.8,0004.7,0007.44,0015.71,0006.59
2024-01-26 00:22:00,SystemResetWarning,0826.2,5.00,000.00,025.0,024.2,000.0,033.3,026.3,13.9,0004.6,0007.44,0016.43,0006.59
2024-01-26 00:23:00,SystemResetWarning,0826.2,5.00,000.00,025.0,024.2,000.0,033.3,026.3,13.9,0004.0,0007.43,0017.06,0006.59
2024-01-26 00:24:00,SystemResetWarning,0826.2,5.00,000.00,025.0,024.2,000.0,033.3,026.3,13.9,0003.2,0007.43,0017.73,0006.60
2024-01-26 00:25:00,SystemResetWarning,0826.2,5.00,000.00,025.0,024.1,000.0,033.3,026.3,13.9,0003.2,0007.44,0017.92,0006.61
2024-01-26 00:26:00,SystemResetWarning,0826.2,5.00,000.00,025.0,024.1,000.0,033.3,026.3,13.9,0003.3,0007.47,0018.22,0006.62
2024-01-26 00:27:00,SystemResetWarning,0826.2,5.00,000.00,025.0,024.1,000.0,033.3,026.3,13.9,0003.1,0007.46,0018.32,0006.62
2024-01-26 00:28:00,SystemResetWarning,0826.3,5.00,000.00,025.0,024.1,000.0,033.3,026.3,13.8,0002.7,0007.47,0018.04,0006.64
2024-01-26 00:29:00,SystemResetWarning,0826.2,5.00,000.00,025.0,024.1,000.0,033.3,026.3,13.9,0002.2,0007.45,0017.28,0006.64
2024-01-26 00:30:00,SystemResetWarning,0826.3,5.00,000.00,025.0,024.1,000.0,033.3,026.3,13.9,0002.3,0007.47,0017.29,0006.65
2024-01-26 00:31:00,SystemResetWarning,0826.3,5.00,000.00,025.0,024.1,000.0,033.3,026.3,13.9,0002.9,0007.47,0017.53,0006.64
2024-01-26 00:32:00,SystemResetWarning,0826.3,5.00,000.00,025.0,024.1,000.0,033.3,026.3,13.9,0002.5,0007.46,0016.28,0006.63
2024-01-26 00:33:00,SystemResetWarning,0826.4,5.00,000.00,025.0,024.1,000.0,033.3,026.3,13.9,0002.5,0007.45,0015.38,0006.64
2024-01-26 00:34:00,SystemResetWarning,0826.4,5.00,000.00,025.0,024.1,000.0,033.3,026.3,13.9,0002.8,0007.47,0014.65,0006.65
2024-01-26 00:35:00,SystemResetWarning,0826.4,4.99,000.00,024.9,024.1,000.0,033.3,026.3,13.9,0003.4,0007.43,0013.96,0006.66
2024-01-26 00:36:00,SystemResetWarning,0826.4,5.00,000.00,024.9,024.1,000.0,033.3,026.3,13.9,0003.9,0007.45,0013.80,0006.66
2024-01-26 00:37:00,SystemResetWarning,0826.4,5.00,000.00,024.9,024.0,000.0,033.3,026.3,13.9,0004.1,0007.40,0013.67,0006.65
2024-01-26 00:38:00,SystemResetWarning,0826.4,5.01,000.00,024.9,024.0,000.0,033.3,026.3,13.8,0004.4,0007.35,0013.14,0006.65
2024-01-26 00:39:00,SystemResetWarning,0826.4,5.01,000.00,024.9,024.0,000.0,033.3,026.3,13.8,0004.7,0007.31,0013.94,0006.62
2024-01-26 00:40:00,SystemResetWarning,0826.4,5.01,000.00,024.9,024.0,000.0,033.3,026.3,13.8,0004.7,0007.31,0014.28,0006.60
2024-01-26 00:41:00,SystemResetWarning,0826.4,5.00,000.00,024.9,024.0,000.0,033.3,026.3,13.7,0005.0,0007.30,0013.97,0006.57
2024-01-26 00:42:00,SystemResetWarning,0826.4,4.99,000.00,024.9,023.9,000.0,033.3,026.3,13.7,0004.8,0007.28,0013.59,0006.56
2024-01-26 00:43:00,SystemResetWarning,0826.4,5.00,000.00,024.9,023.9,000.0,033.3,026.3,13.7,0004.4,0007.21,0013.55,0006.55
2024-01-26 00:44:00,SystemResetWarning,0826.4,5.00,000.00,024.9,023.9,000.0,033.3,026.3,13.7,0004.2,0007.23,0013.84,0006.54
2024-01-26 00:45:00,SystemResetWarning,0826.5,5.00,000.00,024.9,023.9,000.0,033.3,026.3,13.7,0004.2,0007.20,0013.88,0006.52
2024-01-26 00:46:00,SystemResetWarning,0826.5,5.00,000.00,024.9,023.9,000.0,033.3,026.3,13.7,0003.8,0007.21,0014.52,0006.50
2024-01-26 00:47:00,SystemResetWarning,0826.6,5.00,000.00,024.9,023.9,000.0,033.2,026.3,13.7,0003.3,0007.19,0014.49,0006.48
2024-01-26 00:48:00,SystemResetWarning,0826.6,5.00,000.00,024.9,023.9,000.0,033.2,026.3,13.7,0002.5,0007.23,0014.38,0006.48
2024-01-26 00:49:00,SystemResetWarning,0826.6,5.00,000.00,024.9,023.9,000.0,033.2,026.3,13.7,0002.0,0007.27,0014.34,0006.48
2024-01-26 00:50:00,SystemResetWarning,0826.6,5.00,000.00,024.9,023.9,000.0,033.2,026.3,13.7,0001.2,0007.31,0013.53,0006.49
2024-01-26 00:51:00,SystemResetWarning,0826.6,5.00,000.00,024.9,023.8,000.0,033.2,026.3,13.6,0001.5,0007.35,0015.16,0006.51
2024-01-26 00:52:00,SystemResetWarning,0826.6,5.00,000.00,024.9,023.8,000.0,033.2,026.2,13.6,0000.9,0007.32,0015.02,0006.51
2024-01-26 00:53:00,SystemResetWarning,0826.6,5.01,000.00,024.9,023.8,000.0,033.2,026.2,13.6,0000.8,0007.30,0015.13,0006.51
2024-01-26 00:54:00,SystemResetWarning,0826.6,5.01,000.00,024.9,023.8,000.0,033.2,026.2,13.6,0001.6,0007.31,0015.43,0006.50
2024-01-26 00:55:00,SystemResetWarning,0826.6,5.00,000.00,024.9,023.8,000.0,033.2,026.2,13.6,0002.0,0007.31,0015.22,0006.51
2024-01-26 00:56:00,SystemResetWarning,0826.6,5.00,000.00,024.9,023.8,000.0,033.2,026.2,13.6,0001.8,0007.30,0014.89,0006.53
2024-01-26 00:57:00,SystemResetWarning,0826.6,5.00,000.00,024.9,023.8,000.0,033.2,026.2,13.6,0001.8,0007.35,0014.48,0006.53
2024-01-26 00:58:00,SystemResetWarning,0826.6,5.00,000.00,024.9,023.8,000.0,033.2,026.2,13.5,0001.4,0007.38,0015.00,0006.56
2024-01-26 00:59:00,SystemResetWarning,0826.6,5.00,000.00,024.9,023.8,000.0,033.2,026.2,13.5,0001.2,0007.35,0014.97,0006.56
